Regional Weather Roundup
Issued by NWS New Orleans/Baton Rouge, LA

Home | Current Version | Previous Version | Text Only | Print | Product List | Glossary On
Versions: 1 2 3 4 5 6 7 8 9 10 11 12 13 14 15 16 17 18 19 20 21 22 23 24 25 26 27 28 29 30 31 32 33 34 35 36 37 38 39 40 41 42 43 44 45 46 47 48 49 50
000
ASUS44 KLIX 241210
RWRLIX
NEW ORLEANS REGIONAL WEATHER ROUNDUP
NATIONAL WEATHER SERVICE NEW ORLEANS LA
700 AM CDT THU JUL 24 2014

NOTE: "FAIR" INDICATES FEW OR NO CLOUDS BELOW 12,000 FEET WITH NO
      SIGNIFICANT WEATHER AND/OR OBSTRUCTIONS TO VISIBILITY.
      SKY/WX - SKY CONDITION AND SIGNIFICANT WEATHER.
      TMP - AIR TEMPERATURE.     DP    - DEWPOINT TEMPERATURE.
      RH  - RELATIVE HUMIDITY.   PRES  - PRESSURE.
      HI  - HEAT INDEX.          WCI   - WIND CHILL INDEX.

*  THESE STATIONS ARE NOT NWS OR FAA STATIONS AND ARE NOT UNDER
   NWS QUALITY CONTROL.

LAZ038-040-048-061>063-065>067-069-241300-
SOUTHEAST LOUISIANA

CITY           SKY/WX    TMP DP  RH WIND       PRES   REMARKS
N.O. AUDUBON     N/A     79  73  83 MISG        N/A
6HR MIN TEMP:  75; 6HR MAX TEMP:  79;

N.O. INTL ARPT PTCLDY    76  73  91 CALM      29.99R
6HR MIN TEMP:  73; 6HR MAX TEMP:  77;

N.O. LAKEFRONT CLEAR     77  74  90 CALM      30.00R
6HR MIN TEMP:  76; 6HR MAX TEMP:  78;

N.O. DOWNTOWN*   N/A     79  70  73 CALM      30.00R
6HR MIN TEMP:  79; 6HR MAX TEMP:  81;

SLIDELL        CLEAR     72  69  90 CALM      29.99S
6HR MIN TEMP:  71; 6HR MAX TEMP:  73;

BATON ROUGE    CLEAR     73  71  93 CALM      29.99R FOG
6HR MIN TEMP:  72; 6HR MAX TEMP:  77;

BOOTHVILLE     LGT RAIN  77  72  84 S7        29.99R
6HR MIN TEMP:  76; 6HR MAX TEMP:  80; 6HR PCP:  0.07;

BELLE CHASSE   MOCLDY    74  71  91 CALM      29.99R FOG
6HR MIN TEMP:  72; 6HR MAX TEMP:  77; 6HR PCP: TRACE;

BOGALUSA*        N/A     71  68  89 NW3       30.02R
6HR MIN TEMP:  70; 6HR MAX TEMP:  75;

GALLIANO*      NOT AVBL
NEW ROADS*     FOG       73  72  98 CALM      30.00R VSB 1
6HR MIN TEMP:  72; 6HR MAX TEMP:  76;

GONZALES*        N/A     72  72 100 CALM      29.99R FOG
6HR MIN TEMP:  70; 6HR MAX TEMP:  74;

HAMMOND*       CLEAR     72  70  94 CALM      30.01R FOG
HOUMA*         PTCLDY    73  70  88 CALM      29.99R FOG
PORT FOURCHON* CLOUDY    75  70  83 S18G25    30.00R HAZE

$$

MSZ070-080>082-241300-
SOUTHERN MISSISSIPPI

CITY           SKY/WX    TMP DP  RH WIND       PRES   REMARKS
MCCOMB         CLEAR     72  70  93 CALM      30.02R FOG
6HR MIN TEMP:  71; 6HR MAX TEMP:  75;

GULFPORT       CLEAR     77  71  82 CALM      30.00R
6HR MIN TEMP:  75; 6HR MAX TEMP:  79;

BILOXI         PTCLDY    74  72  95 N5        30.01R
6HR MIN TEMP:  73; 6HR MAX TEMP:  78;

PASCAGOULA     PTCLDY    73  72  96 N3        30.01R
6HR MIN TEMP:  70; 6HR MAX TEMP:  73; 6HR PCP: TRACE;

STENNIS ARPT*  PTCLDY   N/A N/A N/A CALM      30.00

$$

COASTAL OBSERVATIONS
LAKE AND NEARSHORE STATIONS

STATION/POSITION TIME  TEMP    WIND        PRES    WAVE
                       AIR SEA DIR/SP/G            HT/PER
                 (UTC) (F)     (DEG/KT/KT) (MB)    (FT/S)
WAVELAND YACHT   1200   77      10/  4/  5 1015.2
GRAND ISLE       1200   80 84  240/  5/ 10 1015.9
SOUTHWEST PASS   1200   82 84  200/  7/  9 1016.0
NEW CANAL        1200   78 81  170/  1/  2 1016.0
SHELL BEACH      1200   78 80  160/  3/  3 1015.3

OFFSHORE STATIONS

STATION/POSITION TIME  TEMP    WIND        PRES    WAVE
                       AIR SEA DIR/SP/G            HT/PER
                 (UTC) (F)     (DEG/KT/KT) (MB)    (FT/S)
64 S DAUPHIN ISL 1143   82 84  200/ 10/ 12 1016.0

$$




USA.gov is the U.S. government's official web portal to all federal, state and local government web resources and services.